{"data":{"norad_id":67160,"intl_designator":"2025-302A","name":"GSAT0233 (GALILEO 33)","alt_names":[],"object_type":"PAYLOAD","status":"ACTIVE","operator":null,"country":"ESA","launch_date":"2025-12-17","launch_site_code":"FRGUI","launch_vehicle":null,"mission":null,"orbit_class":"UNKNOWN","rcs_meters":null,"size_class":null,"mass_kg":null,"dimensions":null,"purposes":["earth_obs","nav"],"wikipedia_slug":null,"has_3d_model":false,"image_url":null,"decayed_at":null,"tle_current":{"epoch":"2026-09-17T14:49:21.190368Z","epoch_age_seconds":267377,"freshness":"STALE","line1":"1 67160U 25302A   26260.61760637  .00000008  00000+0  00000+0 0  9990","line2":"2 67160  54.3946  99.4961 0003056 142.0392 221.3345  1.70474424  4700","mean_motion":1.70474424,"eccentricity":0.0003056,"inclination_deg":54.3946,"raan_deg":99.4961,"arg_perigee_deg":142.0392,"mean_anomaly_deg":221.3345,"bstar":0,"rev_number":470,"period_min":844.70149023645,"perigee_km":23213.088133918,"apogee_km":23231.179819539,"semimajor_km":29600.270976729,"source":"CELESTRAK","updated_at":"2026-09-20T09:00:46.499800Z"}}}